LGR888 BIRK-BIVM

Flight info

Callsign LGR888
Flight time 0h 49m
Altitude 5000
Route 6403N02134W 6355N02100W 6354N02037W 6345N02013W
Aircraft R66/L-SFG/C

Departure

Time 2026-04-26 06:27
Airport Reykjavík Domestic Airport (BIRK)

Arrival

Time 2026-04-26 07:16
Airport Vestmannaeyjar Airport (BIVM)
Time Latitude Longitude Altitude Speed Heading
2026-04-26 06:13 64.12442 -21.93196 12 ft 0 kts 206°
2026-04-26 06:22 64.12440 -21.93200 14 ft 5 kts 225°
2026-04-26 06:22 64.12425 -21.93335 20 ft 9 kts 320°
2026-04-26 06:22 64.12496 -21.93453 20 ft 10 kts
2026-04-26 06:22 64.12573 -21.93456 23 ft 13 kts 18°
2026-04-26 06:23 64.12639 -21.93480 33 ft 8 kts 21°
2026-04-26 06:23 64.12686 -21.93477 35 ft 6 kts 13°
2026-04-26 06:23 64.12746 -21.93496 37 ft 11 kts
2026-04-26 06:23 64.12880 -21.93509 90 ft 25 kts 11°
2026-04-26 06:24 64.13094 -21.93645 84 ft 41 kts 325°
2026-04-26 06:24 64.13161 -21.94106 73 ft 24 kts 295°
2026-04-26 06:24 64.13120 -21.94269 33 ft 6 kts 294°
2026-04-26 06:24 64.13129 -21.94332 21 ft 5 kts 291°
2026-04-26 06:25 64.13123 -21.94416 18 ft 5 kts 286°
2026-04-26 06:25 64.13124 -21.94441 12 ft 3 kts 295°
2026-04-26 06:25 64.13122 -21.94474 9 ft 3 kts 280°
2026-04-26 06:25 64.13121 -21.94480 8 ft 0 kts 265°
2026-04-26 06:26 64.13129 -21.94571 12 ft 8 kts 277°
2026-04-26 06:26 64.13136 -21.94699 15 ft 8 kts 193°
2026-04-26 06:26 64.13097 -21.94719 44 ft 21 kts 154°
2026-04-26 06:27 64.12891 -21.94189 264 ft 59 kts 130°
2026-04-26 06:27 64.12669 -21.93320 540 ft 72 kts 118°
2026-04-26 06:27 64.12400 -21.92212 595 ft 93 kts 117°
2026-04-26 06:27 64.12100 -21.91069 969 ft 73 kts 121°
2026-04-26 06:28 64.11896 -21.90299 1504 ft 48 kts 127°
2026-04-26 06:28 64.11763 -21.89748 1977 ft 42 kts 121°
2026-04-26 06:28 64.11822 -21.88785 1947 ft 99 kts 77°
2026-04-26 06:28 64.12143 -21.87343 1902 ft 105 kts 84°
2026-04-26 06:29 64.12002 -21.85888 1964 ft 94 kts 122°
2026-04-26 06:29 64.11520 -21.85012 2087 ft 90 kts 133°
2026-04-26 06:29 64.11132 -21.83969 2273 ft 87 kts 125°
2026-04-26 06:29 64.10791 -21.82895 2458 ft 86 kts 125°
2026-04-26 06:30 64.10461 -21.81823 2657 ft 83 kts 122°
2026-04-26 06:30 64.10260 -21.81041 3307 ft 49 kts 128°
2026-04-26 06:30 64.10101 -21.80255 3611 ft 67 kts 124°
2026-04-26 06:30 64.09839 -21.79194 3738 ft 88 kts 122°
2026-04-26 06:31 64.09534 -21.77970 3938 ft 88 kts 121°
2026-04-26 06:31 64.09271 -21.76898 4237 ft 86 kts 122°
2026-04-26 06:31 64.08966 -21.75677 4393 ft 92 kts 122°
2026-04-26 06:31 64.08635 -21.74388 4567 ft 95 kts 122°
2026-04-26 06:32 64.08315 -21.73074 4739 ft 96 kts 122°
2026-04-26 06:32 64.08016 -21.71732 4912 ft 96 kts 121°
2026-04-26 06:32 64.07713 -21.70375 5081 ft 98 kts 121°
2026-04-26 06:32 64.07383 -21.68926 5117 ft 107 kts 121°
2026-04-26 06:33 64.07026 -21.67418 5097 ft 114 kts 121°
2026-04-26 06:33 64.06645 -21.65845 5073 ft 115 kts 121°
2026-04-26 06:33 64.06264 -21.64282 5071 ft 114 kts 121°
2026-04-26 06:33 64.05875 -21.62687 5073 ft 114 kts 121°
2026-04-26 06:34 64.05507 -21.61116 5074 ft 115 kts 118°
2026-04-26 06:34 64.05205 -21.59471 5067 ft 113 kts 115°
2026-04-26 06:34 64.04916 -21.57899 5066 ft 108 kts 114°
2026-04-26 06:34 64.04758 -21.56264 5066 ft 108 kts 102°
2026-04-26 06:35 64.04583 -21.54626 5060 ft 106 kts 111°
2026-04-26 06:35 64.04359 -21.53071 5068 ft 105 kts 111°
2026-04-26 06:35 64.04130 -21.51590 5249 ft 85 kts 115°
2026-04-26 06:35 64.03983 -21.50492 5427 ft 94 kts 111°
2026-04-26 06:36 64.03709 -21.48846 5064 ft 114 kts 113°
2026-04-26 06:36 64.03439 -21.47281 5077 ft 108 kts 112°
2026-04-26 06:36 64.03157 -21.45730 5065 ft 106 kts 118°
2026-04-26 06:36 64.02829 -21.44311 5153 ft 95 kts 120°
2026-04-26 06:37 64.02503 -21.42882 5076 ft 106 kts 118°
2026-04-26 06:37 64.02165 -21.41407 5072 ft 105 kts 118°
2026-04-26 06:37 64.01826 -21.39914 5069 ft 105 kts 118°
2026-04-26 06:37 64.01494 -21.38446 5067 ft 104 kts 118°
2026-04-26 06:38 64.01160 -21.36978 5068 ft 104 kts 118°
2026-04-26 06:38 64.00832 -21.35532 5069 ft 104 kts 118°
2026-04-26 06:38 64.00495 -21.34072 5070 ft 103 kts 120°
2026-04-26 06:38 64.00160 -21.32627 5074 ft 103 kts 120°
2026-04-26 06:39 63.99824 -21.31166 5077 ft 103 kts 120°
2026-04-26 06:39 63.99493 -21.29726 5075 ft 104 kts 120°
2026-04-26 06:39 63.99155 -21.28273 5088 ft 102 kts 120°
2026-04-26 06:39 63.98829 -21.26864 5140 ft 100 kts 120°
2026-04-26 06:40 63.98513 -21.25479 5233 ft 96 kts 120°
2026-04-26 06:40 63.98210 -21.24130 5336 ft 95 kts 120°
2026-04-26 06:40 63.97909 -21.22782 5437 ft 95 kts 120°
2026-04-26 06:40 63.97612 -21.21446 5537 ft 95 kts 120°
2026-04-26 06:41 63.97314 -21.20103 5638 ft 94 kts 120°
2026-04-26 06:41 63.97019 -21.18779 5737 ft 94 kts 120°
2026-04-26 06:41 63.96727 -21.17455 5837 ft 94 kts 120°
2026-04-26 06:41 63.96433 -21.16137 5938 ft 93 kts 120°
2026-04-26 06:42 63.96138 -21.14813 6039 ft 93 kts 120°
2026-04-26 06:42 63.95838 -21.13482 6079 ft 98 kts 120°
2026-04-26 06:42 63.95515 -21.12079 6085 ft 102 kts 119°
2026-04-26 06:42 63.95182 -21.10639 6087 ft 103 kts 119°
2026-04-26 06:43 63.94841 -21.09175 6088 ft 104 kts 119°
2026-04-26 06:43 63.94504 -21.07727 6089 ft 105 kts 120°
2026-04-26 06:43 63.94120 -21.06302 6073 ft 105 kts 133°
2026-04-26 06:43 63.93613 -21.05134 6087 ft 104 kts 134°
2026-04-26 06:44 63.93119 -21.03962 6087 ft 104 kts 134°
2026-04-26 06:44 63.92665 -21.02675 6092 ft 104 kts 123°
2026-04-26 06:44 63.92253 -21.01320 6092 ft 105 kts 126°
2026-04-26 06:44 63.91833 -20.99986 6149 ft 97 kts 126°
2026-04-26 06:45 63.91453 -20.98638 6107 ft 106 kts 116°
2026-04-26 06:45 63.91240 -20.97025 6098 ft 107 kts 107°
2026-04-26 06:45 63.91118 -20.95341 6095 ft 108 kts 100°
2026-04-26 06:45 63.91021 -20.93662 6095 ft 107 kts 101°
2026-04-26 06:46 63.90925 -20.91995 6093 ft 107 kts 100°
2026-04-26 06:46 63.90826 -20.90316 6096 ft 107 kts 101°
2026-04-26 06:46 63.90705 -20.88646 6090 ft 106 kts 108°
2026-04-26 06:46 63.90596 -20.86996 6101 ft 107 kts 101°
2026-04-26 06:47 63.90549 -20.85296 6097 ft 109 kts 96°
2026-04-26 06:47 63.90503 -20.83574 6096 ft 109 kts 96°
2026-04-26 06:47 63.90456 -20.81844 6097 ft 109 kts 96°
2026-04-26 06:47 63.90410 -20.80137 6099 ft 110 kts 95°
2026-04-26 06:48 63.90388 -20.78459 6260 ft 92 kts 97°
2026-04-26 06:48 63.90375 -20.76825 6118 ft 112 kts 94°
2026-04-26 06:48 63.90344 -20.75087 6106 ft 111 kts 94°
2026-04-26 06:48 63.90315 -20.73342 6105 ft 110 kts 94°
2026-04-26 06:49 63.90286 -20.71603 6106 ft 110 kts 94°
2026-04-26 06:49 63.90261 -20.69871 6106 ft 110 kts 94°
2026-04-26 06:49 63.90237 -20.68121 6041 ft 114 kts 94°
2026-04-26 06:49 63.90211 -20.66392 6092 ft 107 kts 95°
2026-04-26 06:50 63.90184 -20.64616 5993 ft 115 kts 94°
2026-04-26 06:50 63.90144 -20.62788 5910 ft 117 kts 94°
2026-04-26 06:50 63.89943 -20.61013 5804 ft 117 kts 110°
2026-04-26 06:50 63.89637 -20.59339 5719 ft 116 kts 114°
2026-04-26 06:51 63.89289 -20.57706 5634 ft 115 kts 118°
2026-04-26 06:51 63.88509 -20.54541 5477 ft 114 kts 118°
2026-04-26 06:51 63.88116 -20.52979 5398 ft 115 kts 118°
2026-04-26 06:52 63.87716 -20.51409 5314 ft 115 kts 121°
2026-04-26 06:52 63.87259 -20.49927 5232 ft 115 kts 123°
2026-04-26 06:52 63.86791 -20.48447 5151 ft 115 kts 123°
2026-04-26 06:52 63.86328 -20.46977 5070 ft 115 kts 123°
2026-04-26 06:53 63.85867 -20.45503 4990 ft 115 kts 123°
2026-04-26 06:53 63.85405 -20.44027 4910 ft 115 kts 123°
2026-04-26 06:53 63.84949 -20.42559 4831 ft 115 kts 123°
2026-04-26 06:53 63.84483 -20.41098 4749 ft 115 kts 125°
2026-04-26 06:54 63.83977 -20.39677 4664 ft 116 kts 128°
2026-04-26 06:54 63.83438 -20.38307 4583 ft 116 kts 128°
2026-04-26 06:54 63.82867 -20.37017 4498 ft 117 kts 132°
2026-04-26 06:54 63.82284 -20.35767 4417 ft 117 kts 132°
2026-04-26 06:55 63.81690 -20.34508 4334 ft 117 kts 133°
2026-04-26 06:55 63.81099 -20.33262 4255 ft 117 kts 133°
2026-04-26 06:55 63.80504 -20.32016 4175 ft 116 kts 133°
2026-04-26 06:55 63.79919 -20.30786 4117 ft 114 kts 133°
2026-04-26 06:56 63.79345 -20.29572 4111 ft 111 kts 133°
2026-04-26 06:56 63.78790 -20.28381 4109 ft 110 kts 133°
2026-04-26 06:56 63.78233 -20.27176 4110 ft 110 kts 133°
2026-04-26 06:56 63.77680 -20.25986 4110 ft 110 kts 133°
2026-04-26 06:57 63.77002 -20.25203 4101 ft 112 kts 158°
2026-04-26 06:57 63.76260 -20.24644 4106 ft 113 kts 155°
2026-04-26 06:57 63.75509 -20.24133 4112 ft 113 kts 158°
2026-04-26 06:57 63.74751 -20.23604 4110 ft 114 kts 157°
2026-04-26 06:58 63.74000 -20.23089 4109 ft 113 kts 157°
2026-04-26 06:58 63.73249 -20.22573 4106 ft 113 kts 157°
2026-04-26 06:58 63.72494 -20.22057 4108 ft 113 kts 157°
2026-04-26 06:58 63.71688 -20.22027 4096 ft 118 kts 184°
2026-04-26 06:59 63.70902 -20.22552 4106 ft 119 kts 191°
2026-04-26 06:59 63.70119 -20.23112 4103 ft 119 kts 191°
2026-04-26 06:59 63.69320 -20.23678 4102 ft 120 kts 191°
2026-04-26 06:59 63.68534 -20.24231 4101 ft 119 kts 191°
2026-04-26 07:00 63.67721 -20.24439 4100 ft 116 kts 177°
2026-04-26 07:00 63.66920 -20.24553 4097 ft 115 kts 176°
2026-04-26 07:00 63.66124 -20.24662 4097 ft 115 kts 176°
2026-04-26 07:00 63.65325 -20.24771 4095 ft 114 kts 176°
2026-04-26 07:01 63.64536 -20.24881 4096 ft 114 kts 176°
2026-04-26 07:01 63.63748 -20.24844 4098 ft 112 kts 163°
2026-04-26 07:01 63.62985 -20.24483 4098 ft 112 kts 161°
2026-04-26 07:01 63.62262 -20.24088 4125 ft 113 kts 159°
2026-04-26 07:02 63.61499 -20.23641 4096 ft 114 kts 159°
2026-04-26 07:02 63.60728 -20.23171 4048 ft 116 kts 158°
2026-04-26 07:02 63.59979 -20.22706 4002 ft 111 kts 156°
2026-04-26 07:02 63.59256 -20.22244 3898 ft 106 kts 155°
2026-04-26 07:03 63.58564 -20.21801 3788 ft 104 kts 155°
2026-04-26 07:03 63.57863 -20.21355 3678 ft 103 kts 155°
2026-04-26 07:03 63.57182 -20.20924 3570 ft 103 kts 155°
2026-04-26 07:03 63.56490 -20.20487 3468 ft 102 kts 155°
2026-04-26 07:04 63.55808 -20.20059 3378 ft 103 kts 155°
2026-04-26 07:04 63.55114 -20.19621 3267 ft 104 kts 155°
2026-04-26 07:04 63.54419 -20.19185 3157 ft 104 kts 155°
2026-04-26 07:04 63.53716 -20.18746 3047 ft 105 kts 155°
2026-04-26 07:05 63.53024 -20.18311 2939 ft 105 kts 154°
2026-04-26 07:05 63.52319 -20.17870 2829 ft 105 kts 154°
2026-04-26 07:05 63.51610 -20.17424 2718 ft 105 kts 154°
2026-04-26 07:05 63.50906 -20.16983 2608 ft 106 kts 154°
2026-04-26 07:06 63.50194 -20.16536 2498 ft 106 kts 153°
2026-04-26 07:06 63.49496 -20.16098 2392 ft 105 kts 153°
2026-04-26 07:06 63.48805 -20.15670 2368 ft 100 kts 154°
2026-04-26 07:06 63.48148 -20.15260 2356 ft 97 kts 152°
2026-04-26 07:07 63.47521 -20.14872 2363 ft 89 kts 152°
2026-04-26 07:07 63.46936 -20.14503 2365 ft 86 kts 153°
2026-04-26 07:07 63.46360 -20.14136 2369 ft 85 kts 153°
2026-04-26 07:07 63.45768 -20.13762 2312 ft 90 kts 153°
2026-04-26 07:08 63.45161 -20.13385 2253 ft 92 kts 152°
2026-04-26 07:08 63.44545 -20.13000 2193 ft 92 kts 152°
2026-04-26 07:08 63.43926 -20.12615 2134 ft 92 kts 151°
2026-04-26 07:08 63.43314 -20.12232 2076 ft 92 kts 151°
2026-04-26 07:09 63.42691 -20.11844 2016 ft 92 kts 151°
2026-04-26 07:09 63.42072 -20.11457 1957 ft 92 kts 151°
2026-04-26 07:09 63.41458 -20.11074 1898 ft 93 kts 150°
2026-04-26 07:09 63.40836 -20.10686 1840 ft 93 kts 151°
2026-04-26 07:10 63.38966 -20.09519 1663 ft 93 kts 151°
2026-04-26 07:11 63.37711 -20.08738 1544 ft 93 kts 151°
2026-04-26 07:11 63.37210 -20.08047 1510 ft 81 kts 114°
2026-04-26 07:11 63.37215 -20.06890 1487 ft 80 kts 64°
2026-04-26 07:11 63.37705 -20.06252 1462 ft 92 kts 13°
2026-04-26 07:12 63.38350 -20.06184 1442 ft 92 kts
2026-04-26 07:12 63.38985 -20.06135 1442 ft 90 kts
2026-04-26 07:12 63.39609 -20.06206 1451 ft 95 kts 349°
2026-04-26 07:12 63.40109 -20.07223 1458 ft 105 kts 300°
2026-04-26 07:13 63.40180 -20.08859 1454 ft 107 kts 251°
2026-04-26 07:13 63.39773 -20.10105 1455 ft 98 kts 203°
2026-04-26 07:13 63.39154 -20.10657 1450 ft 96 kts 189°
2026-04-26 07:13 63.38668 -20.11643 1405 ft 110 kts 244°
2026-04-26 07:14 63.38614 -20.13610 845 ft 143 kts 274°
2026-04-26 07:14 63.38924 -20.15623 590 ft 130 kts 297°
2026-04-26 07:14 63.39288 -20.17060 892 ft 88 kts 306°
2026-04-26 07:14 63.39603 -20.18132 1149 ft 81 kts 316°
2026-04-26 07:15 63.39979 -20.19094 1292 ft 86 kts 320°
2026-04-26 07:15 63.40382 -20.20203 1229 ft 107 kts 307°
2026-04-26 07:15 63.40822 -20.21738 939 ft 118 kts 298°
2026-04-26 07:15 63.41198 -20.23192 791 ft 96 kts 298°
2026-04-26 07:16 63.41524 -20.24244 695 ft 72 kts 309°
2026-04-26 07:16 63.41806 -20.25061 587 ft 69 kts 304°
2026-04-26 07:16 63.42103 -20.25990 507 ft 78 kts 305°
2026-04-26 07:16 63.42328 -20.26895 484 ft 43 kts 282°
2026-04-26 07:17 63.42389 -20.27137 398 ft 10 kts 279°
2026-04-26 07:17 63.42393 -20.27255 345 ft 5 kts 324°
2026-04-26 07:17 63.42390 -20.27292 347 ft 4 kts 358°
2026-04-26 07:17 63.42412 -20.27285 341 ft 3 kts 356°
2026-04-26 07:18 63.42437 -20.27264 333 ft 7 kts 350°
2026-04-26 07:18 63.42462 -20.27256 331 ft 2 kts 359°
2026-04-26 07:18 63.42467 -20.27249 328 ft 0 kts 15°